Regional Weather Roundup
Issued by NWS Kansas City/Pleasant Hill, MO

Home | Current Version | Previous Version | Graphics & Text | Print | Product List | Glossary Off
Versions: 1 2 3 4 5 6 7 8 9 10 11 12 13 14 15 16 17 18 19 20 21 22 23 24 25 26 27 28 29 30 31 32 33 34 35 36 37 38 39 40 41 42 43 44 45 46 47 48 49 50

000
ASUS43 KEAX 220810
RWREAX

WEATHER ROUNDUP FOR EASTERN KANSAS AND NORTHWEST MISSOURI
NATIONAL WEATHER SERVICE KANSAS CITY/PLEASANT HILL MO
300 AM CDT SUN OCT 22 2017

KSZ040-057-103>105-MOZ028-029-037-043-220900-
...KANSAS CITY METROPOLITAN AREA...

CITY           SKY/WX    TMP DP  RH WIND       PRES   REMARKS
K.C. INTL      LGT RAIN  50  47  89 NE12      29.98S
K.C. DOWNTOWN  LGT RAIN  52  50  93 VRB6      29.98S
LEES SUMMIT    RAIN      50  49  96 N14       29.98S
OLATHE - IXD   RAIN      50  47  89 NE16G26   29.96F
OLATHE - OJC   RAIN      49  48  97 NE9       29.98S
LAWRENCE       CLOUDY    51  49  92 CALM      30.02R

$$

MOZ001>008-011>017-020>025-030>033-038>040-044>046-053-054-220900-
...NORTHERN AND CENTRAL MISSOURI...

CITY           SKY/WX    TMP DP  RH WIND       PRES   REMARKS
ST. JOSEPH     CLOUDY    51  51 100 NE3       29.98F
MOSBY          LGT RAIN  50  46  87 N9        29.99R
WARRENSBURG    TSTM      50  50 100 NW12G20   29.98R
WHITEMAN AFB   RAIN      53  50  91 N15       29.92R
CLINTON        LGT RAIN  54  52  94 N12G18    29.97R
SEDALIA        RAIN      55  55 100 NW12      29.96R
WARSAW         NOT AVBL
CHILLICOTHE      N/A     51  50  96 VRB5      29.97S
KIRKSVILLE     RAIN      53  53 100 NW13G23   29.97R FOG

$$

MOZ041-047>049-056>058-063>065-088>090-097-220900-
...EASTERN AND SOUTHERN MISSOURI...

CITY           SKY/WX    TMP DP  RH WIND       PRES   REMARKS
ST. LOUIS INTL MOCLDY    70  62  76 SE15G23   29.89F
SPIRIT OF STL  CLOUDY    72  64  76 SE9G20    29.87F
COLUMBIA       LGT RAIN  60  60 100 NW12      29.90R
JEFFERSON CITY LGT RAIN  61  57  87 NW13      29.89R
ROLLA          CLOUDY    70  64  81 S15G24    29.86S
OSAGE BEACH    LGT RAIN  57  57 100 VRB5      29.93S
SPRINGFIELD    LGT RAIN  60  60 100 W6        29.97R
BRANSON        LGT RAIN  57  57 100 W7        30.01R
JOPLIN         HVY RAIN  56  56 100 MISG      29.96F FOG
WEST PLAINS    CLOUDY    71  65  81 S14G28    29.89F

$$

IAZ060-094-KSZ022-034>040-054-083-096-NEZ052-066-093-220900-
...KANSAS...SOUTHEAST NEBRASKA AND IOWA...

CITY           SKY/WX    TMP DP  RH WIND       PRES   REMARKS
TOPEKA         CLOUDY    51  50  96 CALM      30.02R
MANHATTAN      CLOUDY    49  44  83 CALM      30.04R
EMPORIA        MOCLDY    50  46  86 NW6       30.02R
CHANUTE        LGT RAIN  52  50  93 N13       29.97F
WICHITA        CLOUDY    50  43  77 NW7       30.05F
OMAHA          CLOUDY    49  41  74 NW5       30.01R
LINCOLN        CLOUDY    46  40  79 CALM      30.03R
FALLS CITY     MOCLDY    51  43  74 NW7       30.00R
LAMONI         LGT RAIN  50  47  89 N9        29.96F
DES MOINES     LGT RAIN  51  47  86 NW5       29.96R

$$




USA.gov is the U.S. government's official web portal to all federal, state and local government web resources and services.